KN4CI-1 Weather Reports


Display with metric or nautical units.
time (UTC)temp
F
wind
direction
speed
MPH
gust
MPH
rain 1hr
in
rain 24hr
in
rain mn
in
humidity
%
barometer
mb
20260505230211 74 218 3.0 9.0 0.00 0.00 0.00 16 1011.6
20260505120707 57 255 0.0 4.0 0.00 0.00 0.00 38 1013.6
20260505115707 56 255 0.0 0.0 0.00 0.00 0.00 39 1013.6
20260505115203 55 255 0.0 4.0 0.00 0.00 0.00 38 1013.6
20260505114705 55 255 0.0 0.0 0.00 0.00 0.00 38 1013.6
20260505114205 55 255 0.0 0.0 0.00 0.00 0.00 37 1013.6
20260505113702 54 255 0.0 0.0 0.00 0.00 0.00 37 1013.6
20260505112703 54 255 0.0 3.0 0.00 0.00 0.00 37 1013.6
20260505110659 54 255 0.0 0.0 0.00 0.00 0.00 36 1012.6
20260505093143 56 258 0.0 4.0 0.00 0.00 0.00 36 1012.6
20260505084639 55 258 0.0 0.0 0.00 0.00 0.00 36 1012.6
20260505054110 56 258 0.0 0.0 0.00 0.00 0.00 29 1013.6
20260505051605 57 258 0.0 0.0 0.00 0.00 0.00 27 1013.6
20260505050559 57 258 0.0 0.0 0.00 0.00 0.00 27 1013.6
20260505041540 59 258 0.0 0.0 0.00 0.00 0.00 25 1013.6
20260505041041 59 258 0.0 0.0 0.00 0.00 0.00 25 1013.6
20260505040530 59 258 0.0 0.0 0.00 0.00 0.00 25 1013.6
20260505040031 59 258 0.0 0.0 0.00 0.00 0.00 25 1013.6
20260505035532 59 258 0.0 0.0 0.00 0.00 0.00 25 1013.6
20260505034030 60 258 0.0 0.0 0.00 0.00 0.00 25 1013.6
20260505033524 60 258 0.0 0.0 0.00 0.00 0.00 24 1013.6
20260505032524 60 258 0.0 0.0 0.00 0.00 0.00 24 1013.6